Record,Date/Time,10,Tamb(K),Rh(%),Pres(mb),Rain,Az(deg),El(deg),TkBB(K), 22.235, 23.035, 23.835, 26.235, 30.000,
     1,10/04/05 05:32:14,11,298.28, 85.25,1010.8,N,  0.00, 90.00,302.82, 89.87, 86.33, 72.75, 44.79, 29.24,
     2,10/04/05 05:33:14,11,298.40, 86.57,1010.7,N,  0.00, 90.00,302.83, 90.11, 86.54, 72.69, 44.78, 28.97,
     3,10/04/05 05:34:14,11,298.17, 85.20,1010.6,N,  0.00, 90.00,302.82, 89.76, 86.30, 72.75, 44.49, 30.09,
     4,10/04/05 05:35:14,11,298.27, 85.99,1010.8,N,  0.00, 90.00,302.82, 89.99, 86.14, 72.80, 45.41, 29.67,
     5,10/04/05 05:36:14,11,298.22, 85.78,1010.6,N,  0.00, 90.00,302.81, 89.55, 86.27, 73.22, 44.76, 30.00,
     6,10/04/05 05:37:14,11,298.17, 85.54,1010.7,N,  0.00, 90.00,302.83, 90.62, 86.77, 73.45, 45.66, 30.48,
     7,10/04/05 05:38:14,11,298.33, 85.73,1011.0,N,  0.00, 90.00,302.83, 90.03, 86.62, 73.11, 45.13, 30.14,
     8,10/04/05 05:39:14,11,298.16, 85.01,1011.1,N,  0.00, 90.00,302.83, 90.22, 86.73, 72.91, 45.33, 30.33,
     9,10/04/05 05:40:14,11,298.23, 85.01,1010.8,N,  0.00, 90.00,302.83, 90.34, 86.95, 73.43, 45.42, 31.08,
    10,10/04/05 05:41:14,11,298.25, 85.74,1010.9,N,  0.00, 90.00,302.84, 90.96, 87.53, 74.93, 47.42, 33.55,
    11,10/04/05 05:42:14,11,298.24, 85.07,1010.7,N,  0.00, 90.00,302.85, 92.24, 88.45, 75.41, 48.43, 34.43,
    12,10/04/05 05:43:14,11,298.17, 84.18,1010.8,N,  0.00, 90.00,302.85, 91.70, 88.13, 75.02, 48.41, 34.74,
    13,10/04/05 05:44:14,11,298.35, 86.17,1010.8,N,  0.00, 90.00,302.87, 93.16, 89.61, 77.00, 50.09, 36.92,
    14,10/04/05 05:45:14,11,298.16, 85.88,1010.7,N,  0.00, 90.00,302.87, 93.31, 89.71, 76.61, 49.80, 36.47,
    15,10/04/05 05:46:14,11,298.29, 86.29,1010.8,N,  0.00, 90.00,302.87, 91.54, 88.07, 75.45, 48.41, 34.67,
    16,10/04/05 05:47:14,11,298.29, 86.60,1010.6,N,  0.00, 90.00,302.89, 91.63, 88.63, 75.32, 48.68, 34.71,
    17,10/04/05 05:48:14,11,298.19, 85.60,1010.6,N,  0.00, 90.00,302.90, 93.55, 90.24, 77.41, 51.05, 38.03,
    18,10/04/05 05:49:14,11,298.27, 85.71,1010.6,N,  0.00, 90.00,302.91, 92.50, 89.75, 76.67, 49.51, 36.48,
    19,10/04/05 05:50:14,11,297.97, 89.62,1010.6,N,  0.00, 90.00,302.93, 93.31, 89.15, 76.36, 50.30, 36.44,
    20,10/04/05 05:51:14,11,297.70, 91.18,1010.3,N,  0.00, 90.00,302.93, 92.81, 89.70, 76.23, 50.00, 36.43,
    21,10/04/05 05:52:14,11,297.59, 89.75,1010.6,N,  0.00, 90.00,302.95, 92.65, 89.35, 76.20, 49.06, 35.91,
    22,10/04/05 05:53:14,11,297.67, 90.48,1010.5,N,  0.00, 90.00,302.95, 94.02, 90.27, 76.98, 50.57, 37.56,
    23,10/04/05 05:54:14,11,297.53, 91.22,1010.5,N,  0.00, 90.00,302.95, 95.57, 92.30, 79.45, 54.13, 42.47,
    24,10/04/05 05:55:14,11,297.43, 90.52,1010.8,N,  0.00, 90.00,302.95, 94.95, 91.59, 78.64, 53.09, 41.09,
    25,10/04/05 05:56:14,11,297.52, 90.84,1010.5,N,  0.00, 90.00,302.95, 94.28, 91.59, 78.70, 52.89, 40.25,
    26,10/04/05 05:57:14,11,297.40, 90.99,1010.2,N,  0.00, 90.00,302.94, 93.96, 90.28, 76.83, 50.37, 38.34,
    27,10/04/05 05:58:14,11,297.46, 91.63,1010.7,N,  0.00, 90.00,302.93, 92.81, 89.41, 76.46, 49.76, 36.10,
    28,10/04/05 05:59:14,11,297.26, 89.68,1010.4,N,  0.00, 90.00,302.93, 92.97, 89.60, 76.43, 49.72, 36.31,
    29,10/04/05 06:00:14,11,297.37, 91.58,1010.5,N,  0.00, 90.00,302.91, 93.35, 89.63, 76.55, 50.14, 37.26,
    30,10/04/05 06:01:14,11,297.22, 92.03,1010.5,N,  0.00, 90.00,302.89, 92.87, 88.92, 76.44, 49.21, 35.11,
    31,10/04/05 06:02:14,11,297.29, 92.36,1010.6,N,  0.00, 90.00,302.87, 94.00, 90.26, 77.46, 51.59, 38.44,
    32,10/04/05 06:03:14,11,297.08, 92.08,1010.4,N,  0.00, 90.00,302.87, 94.74, 91.30, 78.66, 52.55, 40.09,
    33,10/04/05 06:04:14,11,297.23, 92.01,1010.6,N,  0.00, 90.00,302.85, 94.63, 91.45, 78.29, 53.14, 39.85,
    34,10/04/05 06:05:14,11,297.19, 92.74,1010.6,N,  0.00, 90.00,302.84, 95.62, 92.84, 79.98, 54.53, 43.49,
    35,10/04/05 06:06:14,11,297.06, 90.85,1010.8,N,  0.00, 90.00,302.81, 98.92, 96.85, 84.61, 61.47, 52.15,
    36,10/04/05 06:07:14,11,297.10, 92.83,1010.5,Y,  0.00, 90.00,302.80,102.99,100.90, 88.80, 66.92, 58.35,
    37,10/04/05 06:08:14,11,297.12, 93.80,1010.6,Y,  0.00, 90.00,302.78,100.54, 97.99, 85.38, 62.42, 53.06,
    38,10/04/05 06:09:14,11,297.16, 93.92,1010.7,Y,  0.00, 90.00,302.74, 98.36, 95.49, 83.18, 58.36, 47.89,
    39,10/04/05 06:10:15,11,297.03, 93.75,1010.9,Y,  0.00, 90.00,302.74,102.11, 99.94, 87.44, 65.02, 56.91,
    40,10/04/05 06:11:14,11,297.22, 94.11,1010.7,Y,  0.00, 90.00,302.71, 99.07, 96.30, 83.94, 60.66, 51.87,
    41,10/04/05 06:12:14,11,296.85, 92.97,1010.7,Y,  0.00, 90.00,302.69,105.69,104.27, 93.17, 73.09, 68.55,
    42,10/04/05 06:13:14,11,296.85, 92.00,1010.6,Y,  0.00, 90.00,302.66,108.46,106.85, 96.44, 76.77, 73.03,
    43,10/04/05 06:14:14,11,296.86, 92.63,1010.8,Y,  0.00, 90.00,302.65,109.65,107.12, 96.93, 76.62, 72.56,
    44,10/04/05 06:15:14,11,296.68, 92.82,1010.6,Y,  0.00, 90.00,302.61,104.85,102.30, 90.77, 69.18, 62.85,
    45,10/04/05 06:16:14,11,296.72, 93.16,1010.6,Y,  0.00, 90.00,302.58,102.57, 99.92, 88.31, 65.82, 58.66,
    46,10/04/05 06:17:14,11,296.95, 93.29,1010.6,Y,  0.00, 90.00,302.57,101.45, 98.71, 87.44, 64.61, 55.72,
    47,10/04/05 06:18:14,11,296.86, 93.73,1010.7,Y,  0.00, 90.00,302.53,100.89, 98.46, 86.66, 64.36, 56.09,
    48,10/04/05 06:19:14,11,296.59, 92.75,1010.8,Y,  0.00, 90.00,302.48,100.47, 98.16, 85.43, 62.42, 52.76,
    49,10/04/05 06:20:14,11,296.71, 92.39,1010.8,Y,  0.00, 90.00,302.45, 99.69, 97.18, 85.09, 60.96, 52.29,
    50,10/04/05 06:21:14,11,296.67, 92.68,1010.6,Y,  0.00, 90.00,302.44,101.64, 99.30, 86.81, 63.91, 56.20,
    51,10/04/05 06:22:14,11,296.54, 92.08,1010.5,Y,  0.00, 90.00,302.42, 99.79, 97.09, 84.82, 62.09, 53.24,
    52,10/04/05 06:23:14,11,296.41, 92.42,1010.4,Y,  0.00, 90.00,302.36, 99.15, 96.42, 84.32, 60.99, 52.66,
    53,10/04/05 06:24:14,11,296.53, 92.68,1010.7,Y,  0.00, 90.00,302.32,100.03, 97.69, 86.23, 63.73, 56.49,
    54,10/04/05 06:25:15,11,296.41, 93.44,1010.3,Y,  0.00, 90.00,302.28,105.99,104.08, 92.93, 72.58, 67.13,
    55,10/04/05 06:26:14,11,296.52, 92.45,1010.4,Y,  0.00, 90.00,302.27,100.14, 97.39, 85.52, 62.23, 53.62,
    56,10/04/05 06:27:15,11,296.52, 92.63,1010.4,Y,  0.00, 90.00,302.23, 95.37, 92.24, 79.50, 54.78, 43.21,
    57,10/04/05 06:28:14,11,296.65, 93.44,1010.5,Y,  0.00, 90.00,302.18, 96.99, 93.58, 81.23, 56.42, 45.43,
    58,10/04/05 06:29:14,11,296.89, 93.95,1010.4,Y,  0.00, 90.00,302.14, 97.23, 94.38, 82.22, 58.23, 48.59,
    59,10/04/05 06:30:14,11,296.90, 93.75,1010.2,Y,  0.00, 90.00,302.10, 98.32, 95.67, 84.06, 60.40, 50.30,
    60,10/04/05 06:31:15,11,296.78, 93.36,1010.5,Y,  0.00, 90.00,302.05, 96.68, 93.87, 81.58, 57.16, 47.35,
    61,10/04/05 06:32:14,11,296.85, 93.49,1010.3,Y,  0.00, 90.00,302.02, 98.97, 96.32, 84.45, 61.59, 53.01,
    62,10/04/05 06:33:14,11,296.83, 94.25,1010.3,Y,  0.00, 90.00,301.97, 96.80, 94.26, 82.06, 57.59, 46.60,
    63,10/04/05 06:34:14,11,296.82, 94.04,1010.3,Y,  0.00, 90.00,301.97, 96.79, 94.30, 82.11, 57.97, 46.82,
    64,10/04/05 06:35:14,11,296.86, 92.58,1010.3,Y,  0.00, 90.00,301.91, 96.19, 93.16, 80.63, 55.70, 45.18,
    65,10/04/05 06:36:14,11,296.70, 92.11,1010.4,Y,  0.00, 90.00,301.89, 95.76, 92.58, 80.26, 55.49, 43.84,
    66,10/04/05 06:37:14,11,297.04, 91.50,1010.1,Y,  0.00, 90.00,301.85, 99.43, 96.66, 84.62, 61.55, 52.75,
    67,10/04/05 06:38:14,11,296.94, 93.37,1010.2,Y,  0.00, 90.00,301.82,106.69,104.31, 93.44, 73.18, 67.57,
    68,10/04/05 06:39:14,11,297.30, 94.35,1010.2,Y,  0.00, 90.00,301.80,114.23,112.74,102.89, 85.65, 83.87,
    69,10/04/05 06:40:14,11,297.25, 94.68,1010.2,Y,  0.00, 90.00,301.77,104.54,102.01, 91.55, 70.13, 64.40,
    70,10/04/05 06:41:15,11,297.31, 94.53,1010.4,Y,  0.00, 90.00,301.74,100.54, 98.10, 86.25, 63.24, 54.02,
    71,10/04/05 06:42:14,11,297.36, 93.97,1010.6,Y,  0.00, 90.00,301.72, 96.22, 93.25, 80.77, 55.73, 43.29,
    72,10/04/05 06:43:14,11,297.42, 93.58,1010.4,Y,  0.00, 90.00,301.69, 94.02, 91.07, 78.59, 52.99, 40.80,
    73,10/04/05 06:44:14,11,297.14, 93.44,1010.2,Y,  0.00, 90.00,301.67, 93.97, 90.98, 78.10, 52.75, 40.52,
    74,10/04/05 06:45:14,11,297.22, 93.97,1010.3,Y,  0.00, 90.00,301.65, 94.62, 91.37, 78.59, 53.86, 41.20,
    75,10/04/05 06:46:14,11,297.19, 93.54,1010.5,Y,  0.00, 90.00,301.62, 94.62, 90.98, 78.99, 53.45, 42.01,
    76,10/04/05 06:47:14,11,297.28, 93.39,1010.3,Y,  0.00, 90.00,301.62, 94.47, 91.00, 79.39, 53.59, 41.75,
    77,10/04/05 06:48:14,11,297.27, 92.78,1010.4,N,  0.00, 90.00,301.59, 95.71, 92.65, 80.06, 55.07, 43.22,
    78,10/04/05 06:49:14,11,297.39, 92.25,1010.2,N,  0.00, 90.00,301.59, 93.32, 90.42, 77.87, 52.41, 39.54,
    79,10/04/05 06:50:14,11,297.43, 91.19,1010.1,N,  0.00, 90.00,301.59, 92.02, 89.09, 76.03, 49.40, 36.32,
    80,10/04/05 06:51:14,11,297.55, 91.48,1010.3,N,  0.00, 90.00,301.58, 91.22, 87.88, 74.74, 47.91, 33.64,
    81,10/04/05 06:52:14,11,297.54, 91.19,1010.3,N,  0.00, 90.00,301.56, 91.67, 88.23, 75.04, 47.98, 34.33,
    82,10/04/05 06:53:14,11,297.51, 90.94,1010.3,N,  0.00, 90.00,301.55, 91.70, 88.41, 75.23, 48.02, 34.29,
    83,10/04/05 06:54:14,11,297.36, 90.88,1010.2,N,  0.00, 90.00,301.54, 91.40, 88.22, 74.80, 47.76, 35.07,
    84,10/04/05 06:55:14,11,297.51, 91.28,1010.4,N,  0.00, 90.00,301.53, 91.40, 87.84, 74.72, 47.97, 33.86,
    85,10/04/05 06:56:14,11,297.41, 91.40,1010.2,N,  0.00, 90.00,301.54, 92.00, 88.41, 75.48, 48.95, 35.91,
    86,10/04/05 06:57:14,11,297.43, 91.46,1010.0,N,  0.00, 90.00,301.53, 91.97, 88.47, 75.80, 48.55, 35.85,
    87,10/04/05 06:58:14,11,297.28, 91.31,1010.2,N,  0.00, 90.00,301.51, 91.57, 89.11, 75.39, 49.34, 36.43,
    88,10/04/05 06:59:14,11,297.22, 90.89,1010.0,N,  0.00, 90.00,301.51, 92.57, 89.47, 76.52, 50.63, 37.67,
    89,10/04/05 07:00:14,11,297.26, 91.05,1010.1,N,  0.00, 90.00,301.52, 94.00, 90.13, 77.75, 52.08, 39.09,
    90,10/04/05 07:01:14,11,297.32, 90.56,1010.4,N,  0.00, 90.00,301.53, 93.21, 90.24, 77.91, 52.05, 39.82,
    91,10/04/05 07:02:14,11,297.16, 90.51,1010.4,N,  0.00, 90.00,301.52, 94.37, 91.09, 78.08, 52.28, 39.89,
    92,10/04/05 07:03:14,11,297.17, 90.37,1010.2,N,  0.00, 90.00,301.52, 95.38, 92.78, 80.58, 55.03, 44.35,
    93,10/04/05 07:04:14,11,297.29, 90.35,1010.3,N,  0.00, 90.00,301.54, 96.83, 93.64, 81.06, 56.24, 45.52,
    94,10/04/05 07:05:14,11,297.07, 91.36,1010.4,N,  0.00, 90.00,301.52, 97.80, 95.14, 83.46, 59.50, 50.29,
    95,10/04/05 07:06:14,11,297.14, 90.49,1010.3,N,  0.00, 90.00,301.53, 99.40, 96.29, 84.32, 60.75, 51.87,
    96,10/04/05 07:07:14,11,297.22, 90.64,1010.3,N,  0.00, 90.00,301.54,100.78, 98.26, 86.69, 63.64, 55.32,
    97,10/04/05 07:08:14,11,297.14, 91.66,1010.3,N,  0.00, 90.00,301.53, 97.96, 95.50, 83.58, 59.67, 49.56,
    98,10/04/05 07:09:14,11,297.09, 92.45,1010.3,N,  0.00, 90.00,301.55, 97.50, 94.63, 82.39, 58.19, 48.30,
    99,10/04/05 07:10:14,11,297.00, 93.29,1010.2,N,  0.00, 90.00,301.56, 98.59, 95.65, 83.52, 59.56, 50.25,
   100,10/04/05 07:11:14,11,297.02, 94.08,1010.3,N,  0.00, 90.00,301.55,101.81, 99.22, 87.51, 64.89, 58.14,
   101,10/04/05 07:12:14,11,296.91, 93.69,1010.4,N,  0.00, 90.00,301.56, 99.21, 96.66, 85.25, 62.57, 53.24,
   102,10/04/05 07:13:14,11,297.04, 94.20,1010.4,N,  0.00, 90.00,301.56,104.15,101.94, 91.26, 71.12, 65.34,
   103,10/04/05 07:14:14,11,296.74, 95.59,1010.3,Y,  0.00, 90.00,301.58,115.91,115.25,106.30, 90.71, 92.82,
   104,10/04/05 07:15:14,11,296.60, 97.38,1010.3,Y,  0.00, 90.00,301.57,112.31,110.35, 99.93, 82.74, 82.66,
   105,10/04/05 07:16:14,11,296.53, 97.84,1010.3,Y,  0.00, 90.00,301.55,114.04,113.30,104.78, 90.35, 94.27,
   106,10/04/05 07:17:14,11,296.40, 98.46,1010.4,Y,  0.00, 90.00,301.57,110.10,107.96, 97.68, 79.58, 78.56,
   107,10/04/05 07:18:14,11,296.34, 98.83,1010.4,N,  0.00, 90.00,301.55,110.33,108.01, 97.65, 79.09, 76.53,
   108,10/04/05 07:19:14,11,296.06, 99.04,1010.2,N,  0.00, 90.00,301.55,105.64,103.32, 92.85, 72.02, 66.52,
   109,10/04/05 07:20:14,11,296.15, 99.19,1010.2,Y,  0.00, 90.00,301.54,102.71,100.08, 88.92, 66.97, 61.10,
   110,10/04/05 07:21:14,11,296.05, 99.35,1010.3,N,  0.00, 90.00,301.53,106.09,104.71, 93.70, 73.15, 69.54,
   111,10/04/05 07:22:14,11,296.18, 99.43,1010.3,Y,  0.00, 90.00,301.53,102.59,100.12, 88.89, 67.19, 61.28,
   112,10/04/05 07:23:14,11,296.37, 99.50,1010.4,Y,  0.00, 90.00,301.51,102.00, 99.04, 87.57, 65.51, 59.41,
   113,10/04/05 07:24:14,11,296.40, 99.60,1010.2,N,  0.00, 90.00,301.50, 99.98, 96.86, 85.53, 62.31, 54.20,
   114,10/04/05 07:25:14,11,296.47, 99.69,1010.5,N,  0.00, 90.00,301.47, 96.97, 94.07, 81.70, 57.73, 48.10,
   115,10/04/05 07:26:14,11,296.65, 99.73,1010.4,Y,  0.00, 90.00,301.46, 96.21, 93.22, 80.75, 56.83, 45.37,
   116,10/04/05 07:27:14,11,296.39, 99.79,1010.6,N,  0.00, 90.00,301.45, 95.29, 92.50, 79.46, 54.61, 43.82,
   117,10/04/05 07:28:14,11,296.53, 99.83,1010.3,N,  0.00, 90.00,301.45, 92.86, 89.72, 77.02, 51.62, 39.07,
   118,10/04/05 07:29:14,11,296.76, 99.90,1010.3,N,  0.00, 90.00,301.43, 92.89, 89.34, 76.21, 50.62, 38.96,
   119,10/04/05 07:30:14,11,296.43, 99.85,1010.2,N,  0.00, 90.00,301.40, 92.28, 89.14, 76.07, 49.63, 36.84,
   120,10/04/05 07:31:14,11,296.46, 99.85,1010.6,N,  0.00, 90.00,301.39, 94.38, 91.05, 78.45, 53.46, 41.96,
   121,10/04/05 07:32:14,11,296.33, 99.90,1010.2,N,  0.00, 90.00,301.38, 95.57, 92.56, 79.99, 55.10, 44.39,
   122,10/04/05 07:33:14,11,296.25, 99.88,1010.1,N,  0.00, 90.00,301.34, 95.02, 92.12, 79.13, 54.39, 43.02,
   123,10/04/05 07:34:14,11,296.30, 99.96,1010.1,N,  0.00, 90.00,301.34, 95.24, 91.97, 79.40, 54.54, 43.74,
   124,10/04/05 07:35:14,11,296.39,100.01,1010.1,N,  0.00, 90.00,301.36, 95.03, 91.74, 78.96, 53.28, 42.86,
   125,10/04/05 07:36:14,11,296.40, 99.99,1010.2,N,  0.00, 90.00,301.33, 94.44, 91.12, 78.19, 53.40, 41.88,
   126,10/04/05 07:37:14,11,296.43,100.01,1010.1,N,  0.00, 90.00,301.32, 96.13, 93.46, 81.07, 56.76, 46.62,
   127,10/04/05 07:38:14,11,296.28,100.01,1010.4,N,  0.00, 90.00,301.30, 97.04, 93.81, 81.08, 56.88, 47.04,
   128,10/04/05 07:39:14,11,296.25,100.02,1010.2,N,  0.00, 90.00,301.31, 96.94, 93.81, 81.41, 57.06, 47.85,
   129,10/04/05 07:40:14,11,296.39,100.08,1010.2,Y,  0.00, 90.00,301.30,124.90,124.28,115.65,102.89,108.05,
   130,10/04/05 07:41:14,11,296.34,100.04,1010.5,Y,  0.00, 90.00,301.27,124.04,121.35,110.97, 94.31, 94.64,
   131,10/04/05 07:42:14,11,296.34,100.08,1010.4,Y,  0.00, 90.00,301.28,112.61,111.38,102.29, 84.72, 84.91,
   132,10/04/05 07:43:14,11,296.14,100.04,1010.3,Y,  0.00, 90.00,301.25,115.50,114.09,104.48, 87.67, 88.12,
   133,10/04/05 07:44:14,11,296.11,100.04,1010.3,Y,  0.00, 90.00,301.26,119.68,117.96,107.23, 88.34, 85.09,
   134,10/04/05 07:45:14,11,295.91,100.08,1010.1,Y,  0.00, 90.00,301.25,119.10,117.97,109.36, 94.26, 96.30,
   135,10/04/05 07:46:14,11,296.37,100.07,1010.6,Y,  0.00, 90.00,301.24,121.25,120.62,112.14, 99.40,105.87,
   136,10/04/05 07:47:14,11,296.14,100.08,1010.4,Y,  0.00, 90.00,301.23,139.93,139.27,132.11,123.19,132.77,
   137,10/04/05 07:48:14,11,296.06,100.05,1010.6,Y,  0.00, 90.00,301.20,126.61,126.42,117.99,104.69,110.44,
   138,10/04/05 07:49:14,11,295.99,100.03,1010.1,N,  0.00, 90.00,301.20,151.73,153.97,149.04,146.42,161.61,
   139,10/04/05 07:50:14,11,295.99,100.10,1010.3,N,  0.00, 90.00,301.19,109.32,106.76, 95.69, 75.83, 73.33,
   140,10/04/05 07:51:14,11,295.75,100.03,1010.0,N,  0.00, 90.00,301.18, 98.64, 95.77, 83.76, 60.47, 51.78,
   141,10/04/05 07:52:14,11,295.67,100.05,1010.1,N,  0.00, 90.00,301.16, 94.05, 90.60, 78.20, 52.54, 40.31,
   142,10/04/05 07:53:14,11,295.84,100.11,1010.2,N,  0.00, 90.00,301.16, 95.30, 92.95, 79.84, 55.36, 43.50,
   143,10/04/05 07:54:14,11,295.84,100.06,1009.9,N,  0.00, 90.00,301.12, 95.04, 91.77, 79.09, 53.29, 42.08,
   144,10/04/05 07:55:14,11,295.74,100.09,1010.0,N,  0.00, 90.00,301.11, 94.50, 91.09, 78.61, 52.76, 41.73,
   145,10/04/05 07:56:14,11,295.58,100.05,1010.1,N,  0.00, 90.00,301.10, 93.06, 89.67, 77.09, 51.45, 38.62,
   146,10/04/05 07:57:14,11,295.82,100.03,1009.9,N,  0.00, 90.00,301.08, 94.00, 90.86, 77.88, 52.83, 40.51,
   147,10/04/05 07:58:14,11,295.76,100.05,1010.0,N,  0.00, 90.00,301.07, 94.24, 91.03, 78.48, 52.90, 40.93,
   148,10/04/05 07:59:14,11,295.86,100.04,1010.2,N,  0.00, 90.00,301.05, 93.38, 90.20, 77.30, 51.57, 39.52,
   149,10/04/05 08:00:14,11,295.82,100.04,1010.0,N,  0.00, 90.00,301.05, 92.27, 89.21, 76.30, 50.63, 38.04,
   150,10/04/05 08:01:14,11,295.84,100.08,1010.0,N,  0.00, 90.00,301.03, 92.29, 88.99, 75.91, 50.35, 38.59,
   151,10/04/05 08:02:14,11,295.72,100.06,1009.9,N,  0.00, 90.00,301.02, 92.10, 88.83, 76.23, 50.60, 37.69,
   152,10/04/05 08:03:14,11,296.07,100.05,1009.8,N,  0.00, 90.00,301.02, 92.23, 88.61, 76.41, 50.20, 38.01,
   153,10/04/05 08:04:14,11,295.82,100.03,1010.0,N,  0.00, 90.00,301.01, 92.62, 89.46, 76.51, 49.86, 37.27,
   154,10/04/05 08:05:14,11,296.11,100.03,1010.0,N,  0.00, 90.00,301.00, 93.96, 91.03, 78.50, 53.45, 41.29,
   155,10/04/05 08:06:14,11,295.98,100.04,1010.0,N,  0.00, 90.00,300.99, 94.38, 91.39, 78.35, 53.80, 41.09,
   156,10/04/05 08:07:14,11,295.87,100.06,1010.1,N,  0.00, 90.00,301.00, 92.92, 88.68, 76.21, 50.40, 37.59,
   157,10/04/05 08:08:14,11,295.68,100.05,1010.4,N,  0.00, 90.00,300.99, 92.64, 89.50, 76.78, 50.58, 38.21,
   158,10/04/05 08:09:14,11,295.84,100.04,1010.2,N,  0.00, 90.00,300.98, 94.24, 91.59, 78.13, 53.08, 41.97,
   159,10/04/05 08:10:14,11,295.90,100.03,1010.1,N,  0.00, 90.00,301.00, 92.75, 89.52, 76.69, 51.26, 38.42,
   160,10/04/05 08:11:14,11,295.88,100.08,1010.3,N,  0.00, 90.00,301.01, 92.46, 88.88, 75.71, 50.17, 37.69,
   161,10/04/05 08:12:14,11,295.93,100.01,1010.2,N,  0.00, 90.00,301.01, 91.39, 88.26, 75.07, 49.68, 36.67,
   162,10/04/05 08:13:14,11,296.07,100.03,1010.3,N,  0.00, 90.00,301.01, 91.82, 88.14, 75.67, 49.68, 35.76,
   163,10/04/05 08:14:14,11,296.16,100.04,1010.1,N,  0.00, 90.00,301.02, 91.94, 88.90, 75.86, 49.85, 36.71,
   164,10/04/05 08:15:14,11,296.04,100.03,1009.9,N,  0.00, 90.00,301.03, 92.12, 88.95, 76.13, 49.38, 36.61,
   165,10/04/05 08:16:14,11,295.98, 99.97,1010.4,N,  0.00, 90.00,301.04, 92.05, 88.90, 75.51, 49.52, 36.08,
   166,10/04/05 08:17:14,11,296.10, 99.91,1010.6,N,  0.00, 90.00,301.06, 91.51, 88.50, 75.21, 48.96, 36.63,
   167,10/04/05 08:18:14,11,296.15, 99.83,1010.1,N,  0.00, 90.00,301.07, 91.94, 88.61, 76.29, 49.76, 36.59,
   168,10/04/05 08:19:14,11,296.27, 99.78,1010.2,N,  0.00, 90.00,301.09, 92.48, 89.58, 76.05, 50.56, 37.48,
   169,10/04/05 08:20:14,11,296.60, 99.86,1010.0,N,  0.00, 90.00,301.11, 93.79, 90.51, 77.40, 52.67, 40.93,
   170,10/04/05 08:21:14,11,296.49, 99.88,1010.3,N,  0.00, 90.00,301.14, 93.48, 90.50, 77.27, 53.05, 40.49,
   171,10/04/05 08:22:14,11,296.35, 99.75,1010.2,N,  0.00, 90.00,301.16, 93.51, 90.05, 77.05, 51.50, 39.62,
   172,10/04/05 08:23:14,11,296.53, 99.74,1010.2,N,  0.00, 90.00,301.16, 93.02, 89.56, 77.13, 51.36, 39.01,
   173,10/04/05 08:24:14,11,296.36, 99.72,1010.3,N,  0.00, 90.00,301.18, 99.53, 96.84, 84.86, 62.26, 53.16,
   174,10/04/05 08:25:14,11,296.42, 99.75,1010.1,N,  0.00, 90.00,301.20, 99.17, 96.84, 84.70, 62.27, 52.93,
   175,10/04/05 08:26:14,11,296.40, 99.71,1009.9,N,  0.00, 90.00,301.23, 93.87, 90.33, 77.89, 51.73, 39.49,
   176,10/04/05 08:27:14,11,296.61, 99.74,1010.1,N,  0.00, 90.00,301.25, 91.81, 88.21, 75.98, 49.44, 35.85,
   177,10/04/05 08:28:14,11,296.38, 99.60,1010.1,N,  0.00, 90.00,301.26, 91.69, 88.72, 75.69, 49.44, 36.26,
   178,10/04/05 08:29:14,11,296.43, 99.60,1010.3,N,  0.00, 90.00,301.29, 92.90, 89.64, 76.48, 50.88, 37.60,
   179,10/04/05 08:30:14,11,296.33, 99.55,1010.0,N,  0.00, 90.00,301.32, 93.91, 90.66, 77.29, 51.95, 39.56,
   180,10/04/05 08:31:14,11,296.28, 99.59,1009.9,N,  0.00, 90.00,301.34, 92.82, 89.75, 77.22, 51.28, 39.52,
   181,10/04/05 08:32:14,11,296.28, 99.51,1009.9,N,  0.00, 90.00,301.35, 92.82, 89.96, 76.76, 51.54, 38.40,
   182,10/04/05 08:33:14,11,296.32, 99.43,1010.1,N,  0.00, 90.00,301.39, 93.02, 89.68, 76.51, 50.52, 38.86,
   183,10/04/05 08:34:14,11,296.40, 99.47,1010.3,N,  0.00, 90.00,301.42, 93.68, 91.13, 77.58, 52.01, 39.02,
   184,10/04/05 08:35:14,11,296.26, 99.52,1009.9,N,  0.00, 90.00,301.45, 94.75, 91.92, 79.60, 53.96, 43.57,
   185,10/04/05 08:36:14,11,296.30, 99.46,1009.7,N,  0.00, 90.00,301.46, 94.76, 91.13, 79.01, 54.34, 44.11,
   186,10/04/05 08:37:14,11,296.29, 99.45,1010.1,N,  0.00, 90.00,301.48, 94.65, 91.83, 79.16, 54.62, 43.50,
   187,10/04/05 08:38:14,11,296.34, 99.47,1010.3,N,  0.00, 90.00,301.52, 94.39, 90.77, 78.62, 54.19, 43.68,
   188,10/04/05 08:39:14,11,296.27, 99.58,1010.1,N,  0.00, 90.00,301.53, 95.18, 92.00, 79.64, 55.08, 43.76,
   189,10/04/05 08:40:14,11,296.06, 99.58,1010.0,N,  0.00, 90.00,301.54, 94.84, 91.52, 79.12, 54.39, 42.87,
   190,10/04/05 08:41:14,11,296.14, 99.60,1009.9,N,  0.00, 90.00,301.56, 94.67, 92.19, 79.18, 54.41, 43.78,
   191,10/04/05 08:42:14,11,296.22, 99.62,1010.1,N,  0.00, 90.00,301.59, 93.54, 90.73, 77.99, 53.18, 41.35,
   192,10/04/05 08:43:14,11,296.21, 99.59,1009.9,N,  0.00, 90.00,301.60, 94.27, 91.17, 78.51, 53.39, 42.90,
   193,10/04/05 08:44:14,11,296.00, 99.52,1010.0,N,  0.00, 90.00,301.62, 94.63, 91.45, 79.14, 54.70, 44.36,
   194,10/04/05 08:45:14,11,295.94, 99.38,1010.0,N,  0.00, 90.00,301.63, 95.44, 91.97, 79.64, 54.85, 43.36,
   195,10/04/05 08:46:14,11,296.09, 99.36,1010.2,N,  0.00, 90.00,301.67, 94.12, 90.84, 78.16, 53.39, 42.48,
   196,10/04/05 08:47:14,11,296.18, 99.36,1009.9,N,  0.00, 90.00,301.69, 93.46, 90.19, 77.51, 52.00, 39.58,
   197,10/04/05 08:48:14,11,295.95, 99.25,1010.2,N,  0.00, 90.00,301.72, 93.18, 90.53, 77.68, 51.98, 39.72,
   198,10/04/05 08:49:14,11,295.88, 99.18,1010.0,N,  0.00, 90.00,301.73, 93.39, 89.69, 77.13, 51.63, 39.45,
   199,10/04/05 08:50:14,11,295.98, 99.17,1009.9,N,  0.00, 90.00,301.74, 93.02, 90.14, 77.01, 51.75, 39.24,
   200,10/04/05 08:51:14,11,295.93, 99.14,1010.0,N,  0.00, 90.00,301.74, 93.21, 89.84, 77.17, 51.22, 39.18,
   201,10/04/05 08:52:14,11,295.91, 98.99,1010.0,N,  0.00, 90.00,301.76, 93.57, 90.88, 77.73, 53.05, 40.59,
   202,10/04/05 08:53:14,11,295.75, 98.94,1009.9,N,  0.00, 90.00,301.76, 94.04, 90.79, 78.16, 53.32, 42.32,
   203,10/04/05 08:54:14,11,296.02, 97.86,1010.2,N,  0.00, 90.00,301.79, 94.30, 90.99, 78.31, 53.23, 41.96,
   204,10/04/05 08:55:14,11,296.43, 91.72,1010.3,N,  0.00, 90.00,301.77, 93.72, 90.38, 77.23, 52.43, 40.63,
   205,10/04/05 08:56:14,11,296.63, 90.34,1010.0,N,  0.00, 90.00,301.79, 93.87, 89.93, 77.65, 52.44, 40.38,
   206,10/04/05 08:57:14,11,296.88, 88.12,1009.9,N,  0.00, 90.00,301.81, 93.32, 90.19, 77.12, 51.86, 40.16,
   207,10/04/05 08:58:14,11,297.11, 87.26,1010.1,N,  0.00, 90.00,301.81, 93.05, 90.34, 77.35, 52.56, 40.60,
   208,10/04/05 08:59:14,11,297.17, 87.14,1009.8,N,  0.00, 90.00,301.81, 94.66, 91.40, 78.72, 54.15, 43.15,
   209,10/04/05 09:00:14,11,297.14, 86.08,1010.0,N,  0.00, 90.00,301.82, 94.34, 91.08, 78.04, 53.49, 42.57,
   210,10/04/05 09:01:14,11,297.26, 85.70,1010.0,N,  0.00, 90.00,301.81, 93.55, 90.41, 77.64, 52.47, 40.13,
   211,10/04/05 09:02:14,11,297.42, 86.27,1010.0,N,  0.00, 90.00,301.82, 93.92, 90.96, 77.80, 53.15, 41.26,
   212,10/04/05 09:03:14,11,297.32, 84.06,1009.8,N,  0.00, 90.00,301.81, 94.23, 90.26, 77.56, 52.93, 40.50,
   213,10/04/05 09:04:14,11,297.42, 85.75,1010.0,N,  0.00, 90.00,301.79, 94.35, 90.85, 78.49, 53.27, 41.69,
   214,10/04/05 09:05:14,11,297.40, 83.79,1010.0,N,  0.00, 90.00,301.80, 94.19, 90.77, 78.50, 53.33, 42.01,
   215,10/04/05 09:06:14,11,297.44, 82.43,1010.1,N,  0.00, 90.00,301.82, 95.70, 92.34, 79.58, 55.19, 44.81,
   216,10/04/05 09:07:14,11,297.63, 84.17,1010.2,N,  0.00, 90.00,301.83, 96.36, 92.78, 80.82, 57.14, 47.65,
   217,10/04/05 09:08:14,11,297.50, 83.94,1010.1,N,  0.00, 90.00,301.82, 96.58, 93.74, 81.34, 57.59, 47.73,
   218,10/04/05 09:09:14,11,297.49, 84.12,1010.1,N,  0.00, 90.00,301.84, 97.26, 94.56, 82.30, 58.94, 50.24,
   219,10/04/05 09:10:14,11,297.71, 85.36,1010.1,N,  0.00, 90.00,301.85, 96.75, 93.81, 81.56, 58.20, 48.88,